Regional Weather Roundup
Issued by NWS Green Bay, WI

Home | Current Version | Previous Version | Text Only | Print | Product List | Glossary On
Versions: 1 2 3 4 5 6 7 8 9 10 11 12 13 14 15 16 17 18 19 20 21 22 23 24 25 26 27 28 29 30 31 32 33 34 35 36 37 38 39 40 41 42 43 44 45 46 47 48 49 50
000
ASUS43 KGRB 131410
RWRGRB

NORTH-CENTRAL AND NORTHEAST WISCONSIN REGIONAL WEATHER ROUNDUP
NATIONAL WEATHER SERVICE GREEN BAY WI
900 AM CDT SUN JUL 13 2014

WIZ005-009-010>012-018-019-131500-
NORTH CENTRAL WISCONSIN

CITY           SKY/WX    TMP DP  RH WIND       PRES   REMARKS
IRONWOOD       SUNNY     59  46  63 W8        29.89R
MANITOWISH WTR SUNNY     58  49  71 W10       29.92R
ARBOR VITAE    SUNNY     59  50  71 NW9G16    29.92R
EAGLE RIVER    MOSUNNY   60  47  61 NW12G20   29.90R
LAND O LAKES   MOSUNNY   60  47  63 NW8G16    29.91R
RHINELANDER    MOSUNNY   61  53  75 NW8       29.91R
PHILLIPS       SUNNY     60  52  75 NW6       29.92S
ANTIGO         MOSUNNY   64  56  76 NW14      29.90S
TOMAHAWK       MOSUNNY   61  54  77 W8        29.92R
MERRILL        PTSUNNY   63  57  82 NW8       29.90F
$$

WIZ013-073-131500-
NORTHEAST WISCONSIN

CITY           SKY/WX    TMP DP  RH WIND       PRES   REMARKS
IRON MOUNTAIN  MOSUNNY   64  53  67 NW16G22   29.84S
MARINETTE      MOSUNNY   68  63  83 NW6       29.82S
OCONTO         MOSUNNY   70  63  79 W12G24    29.84S
$$

WIZ017-030-035>037-045-131500-
CENTRAL WISCONSIN

CITY           SKY/WX    TMP DP  RH WIND       PRES   REMARKS
MEDFORD        PTSUNNY   61  56  83 W8        29.93S
WAUSAU         MOSUNNY   67  58  72 NW13      29.89R
MOSINEE        PTSUNNY   66  63  88 NW9       29.92R
MARSHFIELD     MOSUNNY   67  61  81 NW10      29.92R
WISC RAPIDS    CLOUDY    67  64  90 W8        29.92R
STEVENS POINT  CLOUDY    65  62  88 W7        29.91S
WAUPACA        PTSUNNY   71  64  77 W9        29.90S
SHAWANO        MOSUNNY   71  63  75 W9        29.87S
CLINTONVILLE   PTSUNNY   70  61  73 W13G20    29.88S
$$

WIZ038-039-048-051-131500-
FOX VALLEY

CITY           SKY/WX    TMP DP  RH WIND       PRES   REMARKS
NWS GREEN BAY  PTSUNNY   70  63  78 W15G23    29.87S
APPLETON       MOSUNNY   70  63  78 W12G18    29.89S
OSHKOSH        MOSUNNY   69  64  84 W7        29.89S
FOND DU LAC    MOSUNNY   68  63  84 SW8       29.91R
$$

WIZ022-050-052-131500-
EAST CENTRAL WISCONSIN

CITY           SKY/WX    TMP DP  RH WIND       PRES   REMARKS
STURGEON BAY   MOSUNNY   66  61  82 W16       29.85S
MANITOWOC      SUNNY     70  64  81 W14G21    29.88R
SHEBOYGAN      SUNNY     70  63  78 W14       29.89S
$$

LMZ563-521-522-541>543-131500-
LAKESHORE

STATION/POSITION TIME  TEMP    WIND        PRES    VSBY  WAVE
                       AIR SEA DIR/SP/G                  HT/PER
                 (UTC) (F)     (DEG/KT/KT) (MB)    (MI)  (FT/S)
SHEBOYGAN LKSHOR 1400   71     260/ 13/ 15 1011.6F
KEWAUNEE LKSHORE 1400   68     270/ 10/ 17 1011.6S
NORTHPORT PIER   1400   67     290/  5/ 14 1009.8S
N MID LAKE BUOY  1400   62 58  270/ 12/ 12 1008.8R         2/ 3
MENOMINEE LKSHOR 1400   69     270/ 10/ 15 1010.7R
$$


USA.gov is the U.S. government's official web portal to all federal, state and local government web resources and services.